Location: Grand Rapids
(42.9630°N, 85.6680°W)
Time: 02:17:21
(UTC-04:00)

deb Explorer IX - All Passes

Search period start: 30 May 2024 00:00
Search period end: 09 June 2024 00:00
Orbit: 512 x 889 km, 38.7° (Epoch: 29 May)

Date Brightness Start Highest point End Pass type
(mag) Time Alt. Az. Time Alt. Az. Time Alt. Az.
30 May - 01:15:12 10° WSW 01:18:01 16° SSW 01:20:40 10° S visible
30 May - 19:01:02 10° SW 19:06:05 29° SSE 19:10:49 10° E daylight
30 May - 20:44:25 10° WSW 20:50:00 51° S 20:55:02 10° E daylight
30 May - 22:28:45 10° W 22:34:00 50° S 22:38:41 10° ESE visible
31 May - 00:13:35 10° W 00:17:37 24° SSW 00:21:17 10° SSE visible
31 May - 18:00:53 10° SSW 18:05:23 22° SSE 18:09:41 10° ESE daylight
31 May - 19:43:32 10° WSW 19:49:10 45° SSE 19:54:21 10° E daylight
31 May - 21:27:40 10° W 21:33:13 55° S 21:38:12 10° ESE daylight
31 May - 23:12:16 10° W 23:17:02 34° SSW 23:21:21 10° SE visible
01 Jun - 00:59:02 10° SW 01:00:13 11° SW 01:01:22 10° SSW visible
01 Jun - 17:01:20 10° S 17:04:42 15° SE 17:08:00 10° ESE daylight
01 Jun - 18:42:48 10° SW 18:48:19 38° SSE 18:53:30 10° E daylight
01 Jun - 20:26:35 10° WSW 20:32:20 56° S 20:37:34 10° E daylight
01 Jun - 22:11:02 10° W 22:16:20 44° SSW 22:21:04 10° SE visible
01 Jun - 23:56:18 10° WSW 23:59:47 18° SSW 00:03:02 10° S visible
02 Jun - 17:42:16 10° SSW 17:47:28 30° SSE 17:52:28 10° E daylight
02 Jun - 19:25:33 10° WSW 19:31:23 53° S 19:36:49 10° E daylight
02 Jun - 21:09:51 10° W 21:15:29 53° S 21:20:35 10° ESE daylight
02 Jun - 22:54:39 10° W 22:59:12 27° SSW 23:03:21 10° SSE visible
03 Jun - 16:42:05 10° SSW 16:46:37 22° SSE 16:51:06 10° E daylight
03 Jun - 18:24:36 10° WSW 18:30:24 46° SSE 18:35:54 10° E daylight
03 Jun - 20:08:40 10° W 20:14:31 57° S 20:19:53 10° ESE daylight
03 Jun - 21:53:14 10° W 21:58:27 37° SSW 22:03:11 10° SE visible
03 Jun - 23:39:20 10° WSW 23:41:43 13° SW 23:44:00 10° S visible
04 Jun - 15:42:34 10° S 15:45:51 15° SE 15:49:08 10° ESE daylight
04 Jun - 17:23:48 10° SW 17:29:24 38° SSE 17:34:51 10° E daylight
04 Jun - 19:07:30 10° WSW 19:13:28 57° S 19:19:03 10° E daylight
04 Jun - 20:51:54 10° W 20:57:33 47° SSW 21:02:42 10° ESE daylight
04 Jun - 22:37:01 10° W 22:41:06 21° SSW 22:44:55 10° SSE visible
05 Jun - 16:23:16 10° SSW 16:28:25 29° SSE 16:33:34 10° E daylight
05 Jun - 18:06:24 10° WSW 18:12:20 53° S 18:18:04 10° E daylight
05 Jun - 19:50:37 10° W 19:56:30 55° S 20:01:59 10° ESE daylight
05 Jun - 21:35:20 10° W 21:40:20 30° SSW 21:44:57 10° SE daylight
06 Jun - 15:23:06 10° SSW 15:27:30 21° SSE 15:31:57 10° E daylight
06 Jun - 17:05:24 10° SW 17:11:13 46° SSE 17:16:56 10° E daylight
06 Jun - 18:49:21 10° W 18:55:22 59° S 19:01:04 10° ESE daylight
06 Jun - 20:33:50 10° W 20:39:24 40° SSW 20:44:33 10° SE daylight
06 Jun - 22:19:35 10° WSW 22:22:47 15° SW 22:25:51 10° S visible
07 Jun - 14:23:43 10° S 14:26:39 14° SE 14:29:38 10° ESE daylight
07 Jun - 16:04:36 10° SW 16:10:06 37° SSE 16:15:40 10° E daylight
07 Jun - 17:48:09 10° WSW 17:54:09 58° S 18:00:01 10° E daylight
07 Jun - 19:32:27 10° W 19:38:18 50° SSW 19:43:49 10° ESE daylight
07 Jun - 21:17:25 10° W 21:21:59 24° SSW 21:26:17 10° SSE daylight
08 Jun - 15:04:04 10° SSW 15:09:02 28° SSE 15:14:09 10° E daylight
08 Jun - 16:47:01 10° WSW 16:52:54 53° S 16:58:49 10° E daylight
08 Jun - 18:31:06 10° W 18:37:06 56° S 18:42:53 10° ESE daylight
08 Jun - 20:15:41 10° W 20:21:01 33° SSW 20:26:02 10° SE daylight
08 Jun - 22:03:13 10° SW 22:04:14 10° SW 22:05:14 10° SSW visible
